Waarnemingen

Advertentie
Mijn weer
Bastia, Frankrijk (7790): temperatuur & dauwpunt: 21.02.2020 06:00:00 - 27.02.2020 06:00:00 (CET)Bastia, Frankrijk (7790): temperatuur 5cm: 21.02.2020 06:00:00 - 27.02.2020 06:00:00 (CET)Bastia, Frankrijk (7790): temperatuur -20cm & temperatuur -100cm: 21.02.2020 06:00:00 - 27.02.2020 06:00:00 (CET)Bastia, Frankrijk (7790): windsnelheid & windstoten: 21.02.2020 06:00:00 - 27.02.2020 06:00:00 (CET)Bastia, Frankrijk (7790): windrichting: 21.02.2020 06:00:00 - 27.02.2020 06:00:00 (CET)Bastia, Frankrijk (7790): luchtdruk: 21.02.2020 06:00:00 - 27.02.2020 06:00:00 (CET)Bastia, Frankrijk (7790): zicht: 21.02.2020 06:00:00 - 27.02.2020 06:00:00 (CET)Bastia, Frankrijk (7790): Zonneschijnduur: 21.02.2020 06:00:00 - 27.02.2020 06:00:00 (CET)Bastia, Frankrijk (7790): neerslag: 21.02.2020 06:00:00 - 27.02.2020 06:00:00 (CET)
Datum & Tijd tt [°C] td [°C] tt 5cm [°C] tt -20cm [°C] tt -100cm [°C] ff [km/u] ff [kn] fx [km/u] fx [kn] dd ppp [hPa] vv [km] sd [min] rr [mm]
27.02.2020 06:00:00 - - - - - - - - - - - - - -
27.02.2020 05:00:00 9,7 -4,3 8,1 11,7 12,7 31 17 53 29 WZW 1012,1 60 0 0,0
27.02.2020 04:00:00 9,8 -3,9 7,6 11,8 12,7 29 16 46 25 WZW 1012,4 60 0 0,0
27.02.2020 03:00:00 10,6 -7,2 7,2 11,8 12,7 14 7 37 20 WZW 1011,9 60 0 0,0
27.02.2020 02:00:00 10,1 -3,3 8,1 11,8 12,7 16 9 46 25 W 1011,9 60 0 0,0
27.02.2020 01:00:00 10,4 -2,6 8,9 11,9 12,7 30 16 56 31 W 1011,2 60 0 0,0
27.02.2020 00:00:00 10,9 -4,4 9,4 11,9 12,7 35 19 71 39 W 1010,3 60 0 0,0
26.02.2020 23:00:00 11,1 -2,0 9,1 11,9 12,7 37 20 68 37 W 1010,3 60 0 0,0
26.02.2020 22:00:00 11,2 -0,9 9,6 11,9 12,7 42 23 81 44 W 1009,0 60 0 0,0
26.02.2020 21:00:00 11,3 -2,2 10,0 11,9 12,7 36 19 95 52 W 1008,1 60 0 0,0
26.02.2020 20:00:00 11,4 -1,7 10,3 11,9 12,7 29 16 77 41 W 1006,9 59 0 0,0
26.02.2020 19:00:00 11,4 -2,8 10,5 11,9 12,7 43 23 106 57 W 1005,9 56 0 0,0
26.02.2020 18:00:00 12,2 -5,3 11,3 11,9 12,7 56 30 116 63 W 1004,1 60 15 0,0
26.02.2020 17:00:00 12,3 -4,8 11,9 11,9 12,7 55 30 103 55 W 1003,1 37 13 0,0
26.02.2020 16:00:00 13,5 -4,7 13,6 11,9 12,7 55 30 136 74 W 1002,1 56 26 0,0
26.02.2020 15:00:00 13,8 -1,0 12,9 11,8 12,7 43 23 90 48 W 1002,1 31 36 0,0
26.02.2020 14:00:00 16,0 -3,0 18,4 11,9 12,7 47 25 111 60 W 1002,4 19 60 0,0
26.02.2020 13:00:00 16,4 -3,7 19,2 11,9 12,7 66 36 119 65 W 1001,8 19 60 0,0
26.02.2020 12:00:00 16,5 -4,2 19,2 11,9 12,7 57 31 125 68 W 1001,9 22 60 0,0
26.02.2020 11:00:00 16,8 -7,0 18,4 11,9 12,7 58 31 121 65 W 1002,6 29 60 0,0
26.02.2020 10:00:00 16,5 -5,3 17,6 12,0 12,7 73 39 122 66 WZW 1001,8 20 60 0,0
26.02.2020 09:00:00 16,4 -6,0 13,7 12,0 12,7 55 30 114 61 WZW 1001,7 48 22 0,0
26.02.2020 08:00:00 15,3 -4,6 14,3 12,0 12,7 66 35 108 59 WZW 1002,1 47 0 -
26.02.2020 07:00:00 15,6 -6,1 14,4 12,1 12,7 50 27 112 61 WZW 1001,7 60 0 0,0
26.02.2020 06:00:00 15,7 -4,3 13,7 12,1 12,7 54 29 95 51 WZW 1001,3 20 0 0,0
26.02.2020 05:00:00 15,4 -0,8 12,6 12,1 12,7 27 15 56 30 WZW 1002,7 60 0 -
26.02.2020 04:00:00 - - 12,7 12,2 12,7 18 10 49 27 W - 60 0 -
26.02.2020 03:00:00 15,6 3,1 10,1 12,2 12,7 16 9 45 24 WZW 1003,7 60 0 0,0
26.02.2020 02:00:00 14,7 4,1 4,5 12,2 12,7 15 8 32 18 WZW 1004,4 60 0 0,0
26.02.2020 01:00:00 10,3 7,4 5,0 12,2 12,7 4 2 21 12 NNO 1005,0 34 0 0,2
26.02.2020 00:00:00 8,7 7,9 4,7 12,2 12,7 7 4 17 9 WZW 1005,9 12 0 0,0
25.02.2020 23:00:00 8,5 8,1 4,3 12,2 12,7 5 3 16 9 WNW 1006,7 8 0 0,0
25.02.2020 22:00:00 9,8 8,4 7,0 12,2 12,7 10 5 23 12 OZO 1006,9 16 0 0,0
25.02.2020 21:00:00 9,9 9,3 6,5 12,1 12,7 10 5 15 8 ZZO 1007,5 7 0 0,0
25.02.2020 20:00:00 10,2 9,0 6,8 12,0 12,7 4 2 9 5 Z 1008,5 12 0 0,0
25.02.2020 19:00:00 11,4 10,1 7,4 12,0 12,7 6 4 13 7 ZO 1008,6 20 0 0,0
25.02.2020 18:00:00 11,6 9,8 9,7 11,9 12,7 7 4 13 7 ZO 1008,3 20 4 0,0
25.02.2020 17:00:00 14,1 10,9 16,2 11,8 12,7 3 2 13 7 O 1009,1 20 31 0,0
25.02.2020 16:00:00 14,2 11,2 17,8 11,7 12,7 8 5 17 9 ONO 1009,8 28 17 0,0
25.02.2020 15:00:00 15,1 10,9 22,2 11,7 12,7 9 5 18 10 O 1010,3 39 57 0,0
25.02.2020 14:00:00 15,4 11,0 22,5 11,7 12,7 11 6 20 11 O 1011,0 20 58 0,0
25.02.2020 13:00:00 15,3 11,1 24,2 11,7 12,7 12 7 22 12 O 1011,9 20 60 0,0
25.02.2020 12:00:00 15,4 10,2 22,3 11,7 12,7 13 7 23 12 OZO 1012,9 20 60 0,0
25.02.2020 11:00:00 15,2 9,5 19,2 11,8 12,7 8 5 14 8 ZZO 1013,5 20 60 0,0
25.02.2020 10:00:00 11,6 7,9 12,1 11,8 12,7 5 3 9 5 ZZW 1014,4 43 32 0,0
25.02.2020 09:00:00 9,5 7,6 6,5 11,9 12,7 3 2 10 5 W 1015,1 36 34 0,0
25.02.2020 08:00:00 6,4 6,0 2,1 11,9 12,7 6 4 9 5 ZW 1015,1 38 19 0,0
25.02.2020 07:00:00 5,6 5,0 1,5 11,9 12,7 7 4 11 6 ZW 1015,1 20 0 0,0
25.02.2020 06:00:00 6,0 5,4 2,6 12,0 12,7 7 4 15 8 ZW 1015,5 14 0 0,0
25.02.2020 05:00:00 6,7 6,0 4,4 12,0 12,7 9 5 14 7 ZW 1015,9 28 0 0,0
25.02.2020 04:00:00 7,8 6,6 6,4 12,1 12,7 8 5 11 6 ZZW 1016,4 29 0 -
25.02.2020 03:00:00 7,9 7,1 5,9 12,1 12,7 9 5 11 6 ZW 1017,4 27 0 0,0
25.02.2020 02:00:00 7,5 6,6 1,9 12,1 12,7 6 4 10 5 ZW 1018,2 20 0 0,0
25.02.2020 01:00:00 7,5 6,6 2,9 12,2 12,7 5 3 14 7 W 1018,5 25 0 0,2
25.02.2020 00:00:00 7,7 7,1 0,3 12,2 12,7 9 5 14 8 Z 1018,8 31 0 0,0
24.02.2020 23:00:00 5,7 5,3 -0,1 12,2 12,7 4 2 6 4 Z 1019,2 0,6 0 0,0
24.02.2020 22:00:00 7,8 7,2 1,7 12,1 12,7 6 3 9 5 ZW 1019,2 13 0 0,0
24.02.2020 21:00:00 7,8 7,0 2,2 12,1 12,7 7 4 9 5 ZW 1019,4 10 0 0,0
24.02.2020 20:00:00 8,2 6,7 2,7 12,0 12,7 3 2 7 4 WZW 1019,9 11 0 0,0
24.02.2020 19:00:00 - - 3,4 - - 5 3 7 4 W - 19 0 0,0
24.02.2020 18:00:00 12,2 9,4 9,4 11,8 12,7 6 3 15 8 ZO 1019,8 20 41 0,0
24.02.2020 17:00:00 14,4 10,2 19,6 11,7 12,6 10 6 20 11 ZO 1019,9 39 60 0,0
24.02.2020 16:00:00 14,9 9,9 20,9 11,7 12,7 13 7 25 14 OZO 1020,4 20 60 0,0
24.02.2020 15:00:00 15,2 10,0 22,3 11,6 12,7 14 8 29 16 OZO 1020,8 60 60 0,0
24.02.2020 14:00:00 15,4 10,2 23,0 11,6 12,6 16 8 26 14 OZO 1021,4 60 60 0,0
24.02.2020 13:00:00 15,5 10,3 23,2 11,6 12,7 16 9 29 16 ZO 1022,3 60 60 0,0
24.02.2020 12:00:00 15,7 10,5 21,1 11,6 12,7 12 7 26 14 OZO 1023,0 60 50 0,0
24.02.2020 11:00:00 14,8 9,8 17,5 11,6 12,7 9 5 19 10 OZO 1023,3 47 14 0,0
24.02.2020 10:00:00 13,5 9,7 16,6 11,7 12,7 3 2 9 5 ZO 1023,5 34 33 0,0
24.02.2020 09:00:00 11,7 8,9 8,2 11,8 12,7 7 4 10 6 ZZW 1023,4 44 54 0,0
24.02.2020 08:00:00 7,8 7,0 4,8 11,8 12,7 6 3 13 7 ZZW 1023,5 20 6 -
24.02.2020 07:00:00 6,5 5,4 3,5 11,8 12,6 9 5 18 10 ZW 1023,4 26 0 0,0
24.02.2020 06:00:00 6,0 5,0 3,8 11,9 12,7 9 5 13 7 ZW 1023,4 27 0 0,0
24.02.2020 05:00:00 6,1 5,2 2,6 11,9 12,6 9 5 14 7 ZW 1023,5 26 0 0,0
24.02.2020 04:00:00 6,0 5,4 2,7 12,0 12,7 8 4 11 6 ZW 1023,6 26 0 -
24.02.2020 03:00:00 5,9 5,3 3,5 12,0 12,6 8 5 11 6 ZW 1024,3 19 0 -
24.02.2020 02:00:00 6,4 5,8 2,1 12,0 12,6 8 4 10 6 ZW 1025,1 24 0 -
24.02.2020 01:00:00 6,8 6,2 2,2 12,0 12,6 5 3 11 6 ZW 1025,5 19 - -
24.02.2020 00:00:00 6,1 5,5 0,9 12,0 12,6 5 3 11 6 WZW 1026,0 9 0 0,0
23.02.2020 23:00:00 8,0 6,9 1,7 12,0 12,6 4 2 14 7 WZW 1026,3 15 0 -
23.02.2020 22:00:00 8,0 7,4 2,0 12,0 12,6 11 6 14 8 ZZW 1026,1 24 0 0,0
23.02.2020 21:00:00 8,9 7,7 3,2 12,0 12,7 4 2 18 10 Z 1026,6 19 0 0,0
23.02.2020 20:00:00 9,5 8,1 3,5 11,9 12,7 8 4 16 9 ZZO 1027,1 17 0 0,0
23.02.2020 19:00:00 11,5 9,1 7,4 11,8 12,6 5 3 22 12 Z 1027,5 30 0 0,0
23.02.2020 18:00:00 13,0 9,8 11,9 11,8 12,6 13 7 26 14 ZZO 1027,5 33 34 0,0
23.02.2020 17:00:00 14,2 10,0 14,8 11,7 12,6 15 8 27 15 ZZO 1028,0 47 18 0,0
23.02.2020 16:00:00 14,2 10,2 15,6 11,6 12,6 15 8 25 13 ZO 1028,3 42 0 0,0
23.02.2020 15:00:00 14,3 10,1 16,0 11,6 12,6 15 8 22 12 OZO 1028,7 34 0 0,0
23.02.2020 14:00:00 14,6 9,6 18,0 11,6 12,6 10 6 19 10 O 1029,2 38 12 0,0
23.02.2020 13:00:00 15,0 9,4 19,5 11,6 12,6 8 4 17 9 O 1030,3 52 40 0,0
23.02.2020 12:00:00 15,2 8,7 20,7 11,6 12,6 6 3 18 10 O 1031,0 44 43 0,0
23.02.2020 11:00:00 14,5 9,5 17,7 11,6 12,6 7 4 13 7 O 1031,1 50 36 0,0
23.02.2020 10:00:00 13,4 8,0 13,7 11,6 12,6 4 2 9 5 Z 1031,5 54 54 0,0
23.02.2020 09:00:00 11,0 7,3 8,2 11,7 12,6 5 3 16 9 WZW 1031,6 60 55 0,0
23.02.2020 08:00:00 8,6 5,5 2,9 11,7 12,6 6 4 16 9 ZW 1031,2 60 31 0,0
23.02.2020 07:00:00 7,2 4,5 3,1 11,7 12,6 7 4 11 6 ZW 1031,0 59 0 0,0
23.02.2020 06:00:00 6,5 5,0 2,4 11,8 12,6 8 4 13 7 ZW 1030,8 58 0 0,0
23.02.2020 05:00:00 7,9 6,0 4,5 11,8 12,6 9 5 14 8 ZW 1030,8 60 0 -
23.02.2020 04:00:00 9,0 6,6 4,8 11,8 12,6 10 5 14 8 WZW 1030,9 59 0 0,0
23.02.2020 03:00:00 9,1 6,7 5,9 11,8 12,6 6 3 14 8 ZW 1031,4 45 0 0,0
23.02.2020 02:00:00 9,5 7,3 5,1 11,8 12,6 9 5 22 12 ZW 1032,3 47 0 0,0
23.02.2020 01:00:00 10,9 7,9 8,5 11,9 12,6 16 9 26 14 ZZW 1032,7 58 0 0,0
23.02.2020 00:00:00 10,7 8,1 9,0 11,8 12,6 11 6 29 16 Z 1032,7 53 0 0,0
22.02.2020 23:00:00 11,9 8,9 6,5 11,8 12,6 17 9 27 14 ZZW 1032,5 53 0 -
22.02.2020 22:00:00 10,5 8,6 3,2 11,8 12,6 8 5 13 7 Z 1033,1 30 0 -
22.02.2020 21:00:00 10,0 8,6 4,8 11,7 12,6 9 5 15 8 WZW 1033,0 17 0 0,0
22.02.2020 20:00:00 8,6 7,8 4,1 11,6 12,6 11 6 13 7 ZZW 1032,4 17 0 0,0
22.02.2020 19:00:00 11,6 9,7 4,3 11,6 12,6 5 3 21 11 NW 1032,3 8 0 0,0
22.02.2020 18:00:00 12,9 10,3 9,2 11,5 12,6 4 2 15 8 O 1031,3 20 39 0,0
22.02.2020 17:00:00 14,8 10,6 18,9 11,4 12,6 10 6 15 8 OZO 1030,7 42 60 0,0
22.02.2020 16:00:00 15,5 10,5 22,6 11,4 12,6 9 5 19 10 OZO 1031,1 43 60 0,0
22.02.2020 15:00:00 15,7 10,5 23,6 11,3 12,6 13 7 22 12 OZO 1031,5 36 60 0,0
22.02.2020 14:00:00 15,9 10,0 24,6 11,3 12,6 10 5 23 13 OZO 1031,6 19 60 0,0
22.02.2020 13:00:00 15,7 10,2 24,7 11,3 12,6 12 6 21 12 O 1032,1 49 60 0,0
22.02.2020 12:00:00 16,1 9,7 25,0 11,3 12,6 11 6 18 10 O 1032,2 40 60 0,0
22.02.2020 11:00:00 15,7 9,6 21,7 11,4 12,6 6 3 16 9 O 1031,5 51 60 0,0
22.02.2020 10:00:00 13,9 8,5 15,5 11,4 12,6 6 3 12 6 ZZW 1031,0 50 60 0,0
22.02.2020 09:00:00 11,0 6,5 7,8 11,5 12,6 8 4 11 6 ZZW 1030,8 55 60 0,0
22.02.2020 08:00:00 7,8 5,9 2,9 11,5 12,6 8 4 11 6 ZW 1029,8 58 31 0,0
22.02.2020 07:00:00 6,0 4,6 3,6 11,5 12,6 8 4 16 8 ZW 1028,9 57 0 0,0
22.02.2020 06:00:00 6,6 5,1 4,6 11,6 12,6 10 6 16 8 ZW 1028,7 56 0 0,0
22.02.2020 05:00:00 8,4 6,2 4,5 11,7 12,6 12 6 16 9 ZW 1028,5 58 0 0,0
22.02.2020 04:00:00 7,0 5,3 2,9 11,7 12,6 9 5 14 7 ZW 1028,3 53 0 -
22.02.2020 03:00:00 8,9 6,9 4,4 11,7 12,6 10 6 15 8 ZW 1027,9 56 0 -
22.02.2020 02:00:00 6,8 6,1 1,5 11,7 12,6 10 5 13 7 ZW 1027,7 55 0 -
22.02.2020 01:00:00 7,3 6,2 1,5 11,8 12,6 9 5 10 6 ZW 1027,6 39 0 0,0
22.02.2020 00:00:00 6,5 5,8 2,6 - 12,6 8 4 9 5 ZZW 1027,4 18 - -
21.02.2020 23:00:00 7,2 6,9 0,2 11,8 12,6 8 4 10 5 ZW 1027,0 19 0 0,0
21.02.2020 22:00:00 8,1 7,5 0,3 11,7 12,6 4 2 8 4 W 1026,7 16 0 -
21.02.2020 21:00:00 8,5 7,9 1,4 11,7 12,6 6 3 8 4 WZW 1026,0 13 0 0,0
21.02.2020 20:00:00 9,8 8,6 2,0 11,6 12,6 3 1 7 4 NNW 1025,6 18 0 0,0
21.02.2020 19:00:00 10,7 8,6 3,3 11,5 12,6 4 2 8 4 ZO 1025,1 33 0 0,0
21.02.2020 18:00:00 12,0 9,0 8,3 11,5 12,6 5 3 10 5 O 1024,8 54 0 0,0
21.02.2020 17:00:00 13,7 9,7 14,1 11,4 12,6 6 4 13 7 O 1024,4 56 1 0,0
21.02.2020 16:00:00 14,3 9,7 15,3 11,3 12,6 9 5 17 9 OZO 1024,2 60 0 0,0
21.02.2020 15:00:00 14,1 9,7 16,1 11,3 12,6 11 6 19 10 OZO 1024,4 59 12 0,0
21.02.2020 14:00:00 15,0 10,0 19,3 11,3 12,6 10 6 21 11 OZO 1024,0 58 35 0,0
21.02.2020 13:00:00 15,5 10,9 19,1 11,3 12,6 12 6 22 12 ONO 1024,7 39 26 0,0
21.02.2020 12:00:00 15,1 9,5 19,7 11,3 12,6 13 7 24 13 OZO 1024,7 48 54 0,0
21.02.2020 11:00:00 15,1 9,5 19,8 11,3 12,6 11 6 20 11 OZO 1024,4 60 47 0,0
21.02.2020 10:00:00 13,6 8,2 15,4 11,4 12,6 8 4 13 7 ZZW 1024,4 53 60 0,0
21.02.2020 09:00:00 10,9 6,6 7,5 11,4 12,6 9 5 16 9 ZZW 1024,4 47 43 0,0
21.02.2020 08:00:00 7,8 5,1 3,6 11,5 12,6 11 6 16 9 ZW 1024,3 20 6 0,0
21.02.2020 07:00:00 5,8 4,0 3,1 11,5 12,6 9 5 14 8 ZZW 1023,7 52 0 0,0
21.02.2020 06:00:00 6,8 4,8 4,4 11,6 12,6 10 6 18 10 ZW 1023,5 54 0 0,0

tt = temperatuur
td = dauwpunt
tt 5cm = temperatuur 5cm
tt -20cm = temperatuur -20cm
tt -100cm = temperatuur -100cm
ff = windsnelheid
fx = windstoten
dd = windrichting
ppp = luchtdruk
vv = zicht
sd = Zonneschijnduur
rr = neerslag

Weerstations in de omgeving